Wind_Speed
12 11 12 11 10 9 7 7 6 5 5 5 6 7 6 7 7 8 9 11 12 12 13 12 13 15 16 16 16 17 17 17 18 19 20 19 18 17 16 16 14 14 13 12 10 10 10 9 7 6 4 4 4 4 4 4 5 5 4 3 4 5 5 3 2 5 5 5 6 7 6 6 6 7 8 8 7 7 6 5 4 3 2 2 2
12 11 12 11 11 10 9 8 7 6 6 5 6 7 7 7 7 7 8 9 11 11 12 12 13 14 15 16 15 15 16 16 16 16 17 16 15 14 13 13 12 11 11 10 9 9 8 8 7 5 4 3 3 4 4 4 4 4 4 4 5 4 4 5 5 5 6 5 3 3 3 4 4 5 7 8 7 6 5 3 1 0 1 2 4
13 12 12 12 12 11 10 9 8 7 6 6 6 7 8 8 7 7 7 8 10 11 11 12 12 12 13 15 14 14 14 14 14 13 13 13 12 11 11 10 10 9 8 8 8 8 7 7 6 5 5 4 3 4 5 5 4 5 4 5 6 5 4 5 6 5 6 6 4 2 2 3 2 2 4 6 7 5 2 2 3 4 5 4 5
15 14 13 13 12 12 11 10 9 8 7 7 7 7 8 9 8 7 6 7 8 10 10 11 11 11 11 12 12 12 12 11 11 11 10 10 10 9 9 8 8 7 7 6 6 6 7 6 6 5 5 4 4 4 5 5 5 5 5 5 6 7 5 4 5 5 5 5 4 3 2 3 3 3 3 4 5 4 3 5 6 6 6 5 5
15 15 14 13 13 13 12 11 10 9 9 8 7 7 7 8 9 8 7 6 7 9 9 10 11 11 10 10 10 10 10 10 9 9 8 8 8 8 7 7 6 6 6 5 5 5 6 6 6 5 5 5 5 5 6 6 6 5 5 5 6 7 7 5 4 3 3 4 4 4 2 2 2 2 3 4 5 5 5 4 5 6 6 6 6
16 15 14 14 15 14 13 11 11 10 10 9 8 8 8 8 8 9 8 7 6 7 8 9 10 10 10 10 9 8 8 8 7 6 6 6 6 6 6 6 6 5 5 5 4 5 6 6 7 6 5 5 6 6 6 6 6 6 5 5 5 6 7 7 6 3 3 4 5 4 3 3 2 2 3 4 6 6 4 4 5 5 5 5 5
15 14 13 15 16 15 14 13 12 12 11 10 9 8 8 8 8 9 9 8 7 7 7 8 9 9 9 9 9 8 7 8 7 5 5 5 5 5 5 5 5 5 4 4 4 4 5 6 7 7 6 6 7 7 6 6 6 6 6 5 5 5 6 6 6 5 3 4 5 4 4 4 4 3 3 3 5 5 4 3 5 6 4 4 4
14 12 12 15 16 15 14 14 13 13 11 11 11 10 9 8 9 9 9 9 8 7 7 7 7 7 7 7 7 7 7 7 7 6 6 5 5 5 4 4 4 4 4 4 4 4 5 6 7 7 6 6 7 7 6 6 6 6 6 6 6 6 5 5 5 4 4 4 5 5 4 4 4 3 4 3 3 3 3 3 4 5 4 3 4
14 12 12 15 17 16 15 15 15 14 12 12 12 11 10 9 9 9 9 10 9 8 7 7 7 7 6 7 6 7 7 7 7 7 7 6 5 5 4 3 3 3 4 4 4 5 5 6 7 7 7 7 7 6 6 6 6 6 6 7 6 6 5 5 4 3 3 4 4 5 4 4 3 3 4 4 1 1 4 4 3 3 4 4 4
14 13 13 14 17 17 17 16 15 15 13 12 12 12 11 10 10 10 10 10 10 9 9 8 8 7 7 7 7 6 6 6 7 7 7 6 5 4 3 2 2 3 3 4 4 4 5 6 7 7 7 7 7 6 6 6 6 6 7 7 6 6 5 5 4 4 4 3 4 5 4 4 4 4 4 3 2 3 4 4 3 1 3 5 4
14 14 14 14 15 16 16 16 16 15 14 13 13 12 13 12 11 10 10 10 10 10 9 9 8 8 7 7 7 6 6 5 6 6 6 5 4 4 3 2 2 2 3 3 3 4 5 5 6 6 6 6 6 6 6 6 5 6 7 7 7 7 6 5 5 5 5 4 4 4 4 4 3 3 3 3 4 4 3 4 5 3 2 3 3
14 14 15 14 14 14 14 14 15 15 14 13 13 13 13 13 12 11 11 10 10 10 10 9 9 9 8 7 7 6 6 5 5 5 5 5 4 3 3 2 1 2 2 3 3 3 4 4 5 5 6 6 6 6 6 6 5 5 6 6 7 7 7 6 6 6 5 5 5 4 3 3 2 2 4 4 5 4 4 5 5 4 3 5 5
15 15 15 16 15 13 12 12 13 15 14 13 13 14 14 14 13 12 12 11 11 11 11 10 10 9 8 8 7 5 5 5 5 5 5 4 4 3 2 1 1 1 2 2 3 3 3 3 4 4 5 6 6 6 6 6 6 6 5 5 5 7 7 6 5 5 6 6 5 4 3 3 3 3 4 3 4 5 5 5 5 5 6 7 7
16 16 17 18 17 16 14 12 13 15 14 12 13 14 14 14 14 13 13 13 12 12 12 11 11 11 10 9 7 6 6 6 5 4 4 4 4 3 3 2 2 1 1 2 3 3 3 3 3 4 4 5 5 6 6 6 5 5 5 5 4 5 6 5 5 4 5 5 5 5 4 4 4 4 3 2 3 4 5 5 5 5 6 7 8
17 17 18 19 18 18 17 15 14 15 14 13 14 14 14 15 15 14 13 13 13 13 13 13 12 12 11 10 8 7 7 7 6 5 4 5 4 4 4 3 3 2 1 2 3 4 4 4 4 4 4 4 4 4 4 4 4 4 4 4 4 4 4 4 4 4 4 3 4 4 4 4 5 5 3 2 3 4 4 5 4 5 5 6 7
17 18 18 19 19 18 19 17 16 16 15 15 15 15 15 16 15 14 14 14 14 14 14 13 13 13 13 11 10 9 8 7 6 6 6 6 6 5 5 5 4 4 3 3 3 4 5 5 4 4 4 4 4 3 3 3 3 3 3 3 3 3 3 2 2 3 3 2 1 2 3 3 4 5 3 2 3 3 4 4 4 4 4 6 6
18 18 18 19 20 19 18 20 19 17 15 15 16 16 17 18 17 16 15 14 14 15 15 14 14 14 14 13 12 11 10 9 8 8 7 7 7 6 6 6 6 6 5 5 4 4 4 5 5 5 5 4 4 3 3 3 2 2 2 2 1 1 2 2 2 1 1 1 1 1 2 1 2 3 2 1 2 2 3 3 4 4 3 4 5
19 20 19 19 21 21 20 22 22 18 16 15 16 17 18 18 18 17 17 16 15 15 16 16 16 15 15 15 14 13 12 11 11 10 10 9 8 8 8 7 7 7 7 6 6 5 5 4 5 5 5 5 4 4 4 3 2 2 2 1 1 1 1 1 1 2 2 2 1 1 1 0 1 1 1 0 1 2 2 2 3 3 3 3 4
19 20 20 19 20 21 21 23 23 19 17 15 15 16 17 17 18 18 18 18 17 15 16 17 17 17 15 15 15 14 14 13 13 13 11 10 10 9 9 9 9 8 7 7 7 7 5 4 4 4 5 6 5 5 4 4 3 3 2 2 2 2 2 2 2 2 3 2 2 1 0 0 1 1 1 1 2 2 1 2 3 4 4 4 4
19 19 17 17 21 23 23 24 24 20 17 16 16 16 15 16 17 18 18 19 18 17 17 17 18 18 17 17 16 15 15 14 14 14 13 13 12 12 11 11 9 9 9 9 8 7 6 5 4 5 5 6 6 5 5 5 4 4 3 3 3 3 2 2 3 3 3 3 3 2 2 1 1 1 1 2 3 3 2 2 3 3 4 4 4
20 20 17 17 21 24 25 27 26 21 18 17 16 15 15 15 15 16 16 17 18 18 18 18 18 19 19 18 18 17 16 16 16 16 15 15 14 14 13 12 11 10 10 10 9 8 7 6 6 5 5 6 6 6 6 6 6 5 4 4 4 4 3 3 3 4 4 4 3 3 3 3 3 2 2 2 3 4 3 3 3 3 3 3 3
19 21 20 19 21 23 26 28 26 22 20 19 19 18 17 16 16 16 16 17 17 18 18 18 18 18 18 18 18 18 17 17 17 17 17 16 16 16 15 14 13 12 11 10 9 9 8 7 7 7 6 6 6 7 7 7 7 6 6 6 5 5 5 5 5 5 5 5 5 4 5 5 4 4 4 4 4 4 4 4 3 4 3 3 3
23 24 23 22 24 25 25 26 25 23 23 23 23 22 20 19 19 19 18 18 17 17 17 17 18 19 18 18 19 19 19 18 18 18 17 17 17 17 16 16 15 15 13 12 10 10 9 8 8 8 7 7 7 7 7 7 7 8 7 7 7 6 7 7 7 7 7 6 6 6 6 5 5 5 5 5 5 5 6 5 4 4 4 4 4
23 25 25 25 26 27 26 25 23 24 26 26 25 24 21 21 22 20 19 18 18 18 16 16 18 19 19 19 20 20 19 19 19 19 19 18 18 18 18 18 17 16 15 13 12 11 10 10 10 10 9 9 8 8 8 8 8 9 9 8 8 8 8 8 8 8 8 8 7 7 7 7 6 6 6 6 6 6 7 6 5 5 5 5 4
20 23 25 25 25 27 26 25 24 27 28 28 26 25 23 23 22 20 19 19 19 19 17 16 18 19 19 19 20 20 20 20 20 20 19 19 19 18 18 18 17 16 16 16 15 14 13 12 11 11 11 11 10 10 10 9 9 9 10 10 10 9 9 10 9 8 9 9 8 8 8 8 7 8 8 7 7 7 7 6 7 7 6 5 5
19 23 25 25 25 26 26 25 26 29 30 30 28 26 24 24 22 20 20 18 18 18 16 15 17 19 19 19 20 20 20 19 19 20 19 19 19 18 18 17 16 16 16 16 17 17 16 14 14 13 13 12 11 11 11 11 10 10 10 10 11 11 11 11 10 10 10 10 9 9 9 9 9 9 9 9 8 8 8 7 8 8 7 6 7
20 24 26 26 25 25 25 24 26 29 30 31 29 27 25 24 22 21 21 21 20 18 17 18 19 19 17 18 18 18 19 19 19 19 19 18 18 18 18 17 17 17 17 17 18 18 18 17 16 15 15 14 13 13 12 12 12 12 11 12 13 13 13 13 12 11 12 11 11 11 11 11 11 10 10 10 10 9 9 9 9 9 8 8 8
20 24 25 25 24 23 23 23 25 27 28 28 28 27 25 23 23 23 24 25 25 23 21 20 22 21 17 17 19 19 19 20 19 19 18 17 18 18 18 17 17 17 18 18 18 19 19 19 18 17 16 15 15 14 14 14 14 13 13 13 14 14 15 14 14 13 12 12 12 12 12 12 12 12 12 12 12 11 11 11 11 11 10 9 10
18 20 23 23 22 22 22 22 23 23 23 25 27 26 25 23 23 24 25 27 28 28 26 24 24 22 20 19 20 21 21 20 20 20 19 19 19 19 19 19 18 18 17 18 18 19 20 20 19 18 17 16 16 16 16 16 16 15 15 14 15 15 15 15 15 14 13 12 13 14 14 12 12 13 14 14 14 13 13 13 13 13 13 12 12
19 20 22 23 23 25 26 25 25 23 21 22 24 24 23 23 22 22 23 24 24 26 27 28 29 26 24 22 21 21 22 21 21 20 19 19 19 19 20 21 20 19 18 18 19 20 20 20 19 19 19 19 19 18 18 18 18 17 17 16 16 16 16 16 16 16 14 13 13 14 15 15 14 15 15 15 15 15 15 15 15 15 15 15 15
20 21 23 23 22 24 27 29 29 27 23 23 25 24 22 22 21 22 22 22 22 23 24 28 31 30 27 25 24 23 23 23 23 21 19 19 19 19 20 21 21 21 21 20 21 22 22 20 19 19 20 21 21 21 21 20 20 19 19 18 18 18 18 17 17 17 16 15 15 16 17 18 17 17 16 16 17 17 17 17 17 17 17 17 17
21 22 22 21 21 22 25 27 28 27 24 23 23 22 19 19 21 23 23 23 23 23 23 26 31 31 28 26 26 25 25 25 25 24 22 21 21 20 20 20 20 21 21 20 21 22 21 20 20 21 22 23 24 23 23 22 21 21 21 20 20 20 19 19 19 18 18 18 18 19 20 20 20 19 18 18 18 19 19 19 19 19 19 19 19
25 27 26 22 20 21 22 24 25 23 21 21 21 19 17 17 18 20 22 23 23 23 22 23 27 29 28 27 27 27 27 27 27 26 25 24 23 22 22 21 20 20 20 20 20 21 20 20 22 22 21 23 25 25 24 24 23 23 23 23 22 21 20 21 21 20 20 20 20 20 22 22 22 21 21 21 20 20 20 20 20 20 20 20 19
29 31 31 26 21 20 21 21 22 21 19 20 21 20 19 18 17 17 17 18 19 19 19 19 20 22 23 24 26 27 29 30 30 29 28 27 26 25 25 24 24 23 22 21 21 22 21 22 23 22 20 22 25 25 25 26 26 25 25 25 24 22 21 22 23 23 23 23 23 23 23 23 22 23 24 24 23 22 21 21 21 21 20 20 20
26 25 26 24 20 20 20 21 22 21 19 19 20 20 20 18 16 15 13 12 13 15 15 15 16 18 19 19 20 22 24 28 31 32 31 29 28 27 27 27 27 27 25 24 24 25 26 26 26 24 22 21 22 23 25 26 26 25 25 25 25 23 22 25 27 26 25 26 26 26 26 25 24 25 26 26 26 24 23 23 23 22 22 21 20
27 22 19 20 20 18 18 19 21 21 18 18 20 21 19 16 14 14 13 12 11 11 11 11 13 15 17 17 17 16 17 21 28 32 32 30 29 29 28 29 30 30 30 29 28 28 29 29 29 27 24 22 22 24 25 25 24 24 24 24 24 23 25 29 30 28 27 29 30 30 29 29 28 27 27 27 27 26 25 24 24 24 23 22 21
33 31 28 26 24 21 19 19 22 23 20 18 18 19 19 17 15 16 15 13 11 10 9 11 12 13 15 15 15 15 14 15 21 26 29 29 29 29 29 29 30 31 32 34 34 33 33 32 31 30 27 26 26 26 26 25 25 26 26 27 27 26 28 30 31 31 31 32 33 32 32 32 31 30 29 29 29 28 27 26 26 25 25 24 23
33 35 36 34 30 27 24 21 23 25 23 22 23 25 25 22 21 21 20 16 14 13 12 13 14 14 15 15 15 16 16 16 17 19 21 24 25 26 25 24 25 26 27 30 32 34 35 35 34 33 31 29 28 29 29 29 29 30 30 30 30 31 32 32 33 33 34 34 35 35 34 33 33 32 31 31 31 31 30 29 28 28 28 27 26
31 32 33 32 29 26 23 19 20 21 20 22 24 25 24 23 22 21 19 17 16 15 15 16 17 17 17 17 17 17 18 18 19 19 20 21 22 23 23 23 22 21 21 22 24 28 32 34 35 35 33 31 31 32 33 33 34 35 35 34 34 35 36 36 36 35 36 36 36 37 37 36 34 34 34 34 33 33 32 31 30 30 30 29 28
32 31 30 28 25 24 22 21 22 20 17 18 20 18 17 19 20 18 16 17 17 18 18 19 19 20 20 20 19 19 19 19 21 21 22 22 22 23 24 25 25 24 21 19 20 22 25 28 32 34 34 34 34 35 38 38 38 38 38 37 37 38 38 38 38 38 39 39 38 40 40 39 37 35 35 35 35 35 35 35 33 33 32 31 30
31 30 31 30 28 26 25 25 27 27 24 23 24 22 19 20 20 19 19 19 20 20 21 21 21 21 22 22 22 22 22 22 22 22 23 23 23 23 24 25 26 26 25 22 21 21 21 23 25 28 30 32 32 34 35 34 32 33 35 36 37 38 38 38 38 38 38 38 38 40 41 40 39 39 38 38 37 37 37 38 37 36 34 32 31
30 31 31 30 29 28 27 28 30 31 30 30 29 26 23 22 22 22 23 23 23 24 24 24 24 24 23 24 24 25 25 24 24 23 23 24 24 24 24 24 25 26 26 25 24 23 23 22 21 21 23 24 24 24 23 22 22 24 26 25 24 25 26 29 32 35 37 37 37 38 39 39 40 41 41 40 39 38 38 37 37 36 35 34 34
30 31 31 31 32 31 29 29 29 28 28 28 29 29 28 27 27 26 26 26 26 27 27 27 27 27 26 25 25 26 26 27 26 26 25 25 25 26 26 25 25 26 26 27 27 27 26 26 24 23 23 23 23 21 19 19 20 20 20 18 14 12 13 16 19 23 27 29 32 35 38 39 39 39 41 41 40 39 38 37 36 36 36 36 36
33 32 31 32 33 32 30 28 28 29 30 30 31 32 32 32 32 31 30 29 28 29 29 29 29 29 29 28 27 27 27 28 29 29 29 28 28 27 27 27 26 26 27 27 28 28 28 28 27 27 26 27 28 26 23 21 20 20 21 20 17 16 17 17 17 16 15 16 21 26 30 33 36 37 37 39 40 41 40 39 38 37 36 36 35
32 33 34 34 34 34 34 31 29 31 33 34 35 36 36 36 36 35 34 33 32 31 31 31 31 31 30 30 30 30 29 30 31 31 31 31 30 29 28 27 27 27 27 27 28 28 28 28 28 28 28 28 28 26 24 23 23 22 22 21 21 22 22 19 17 17 17 15 16 19 21 26 33 37 38 38 38 40 41 40 39 39 38 37 36
27 29 32 34 35 36 37 36 34 34 35 37 38 38 38 39 39 38 37 36 35 34 33 33 33 33 33 32 32 32 32 32 32 33 33 33 32 31 29 29 28 28 27 28 28 28 29 28 28 28 27 27 26 25 25 27 28 28 27 26 24 24 25 22 20 19 19 18 17 17 17 18 23 29 33 32 30 30 32 34 36 39 40 40 40
30 29 30 32 34 36 37 38 38 37 37 38 38 38 38 38 39 39 38 38 37 35 35 35 36 36 36 35 34 34 35 35 35 35 35 35 34 33 32 31 31 30 29 29 29 29 29 29 28 27 27 27 26 25 26 27 29 30 30 29 27 26 27 28 25 22 20 19 19 19 19 17 17 19 21 22 22 22 23 26 30 33 35 37 39
31 31 32 32 33 34 35 36 36 37 37 37 38 38 38 38 38 38 37 37 36 35 35 37 39 39 39 39 37 35 36 37 38 38 37 36 36 36 35 34 34 33 32 32 31 31 31 30 30 29 29 28 27 26 25 26 27 28 28 28 28 28 28 27 25 24 23 22 22 21 22 22 22 23 24 23 22 22 23 24 26 27 28 29 32
30 32 33 34 34 34 34 35 35 35 36 36 37 37 37 37 38 38 37 36 35 35 35 38 41 42 41 42 42 40 38 38 40 40 39 38 37 37 37 37 37 36 36 35 34 34 34 33 33 33 32 31 30 28 28 27 27 28 28 27 26 26 25 25 25 25 25 24 23 22 23 25 27 28 28 26 25 24 25 26 26 25 25 25 25
29 31 33 35 36 37 37 37 36 37 37 37 37 37 36 36 36 36 36 36 36 36 36 37 39 42 44 44 44 43 42 41 40 40 40 39 38 37 37 38 38 38 38 38 37 37 36 35 35 35 34 34 33 32 31 30 29 29 29 29 28 27 28 28 28 28 28 28 27 28 29 30 31 30 30 28 28 28 28 28 28 27 26 25 24
26 28 30 32 35 36 38 38 37 36 36 36 37 37 37 37 36 36 37 37 37 38 38 38 39 41 45 47 48 47 46 44 42 41 39 39 39 39 39 39 39 39 39 39 40 39 39 38 37 37 37 37 36 35 34 33 32 32 31 31 31 32 33 33 33 33 33 33 33 32 32 31 30 30 30 30 30 30 30 30 31 30 30 29 28
Wind_Direction
204 201 192 188 195 200 203 206 203 198 185 161 143 136 132 125 117 110 108 111 113 114 115 113 113 114 115 115 115 116 116 116 118 119 119 119 119 119 118 118 117 117 118 119 121 121 119 120 122 122 127 132 126 122 117 106 95 94 92 92 108 125 133 134 126 128 140 167 169 162 161 157 154 156 159 166 172 176 183 187 179 172 198 247 310
204 206 200 193 197 201 202 205 206 203 196 176 159 154 147 139 130 121 115 113 117 120 123 123 123 122 122 121 120 119 119 120 120 119 120 120 119 118 116 114 113 112 113 113 113 115 115 114 113 117 121 124 125 123 114 106 98 96 101 112 117 122 128 125 123 130 132 135 151 159 163 170 174 173 166 165 168 172 176 171 158 118 338 335 331
204 208 207 201 202 205 203 203 207 206 201 190 176 169 159 149 143 134 124 120 123 125 127 131 131 130 128 127 126 123 122 124 122 120 119 118 118 116 113 111 110 111 110 108 106 108 109 106 108 113 113 114 114 111 111 113 108 97 98 110 110 101 105 122 130 140 134 130 138 142 152 160 157 174 176 167 162 159 145 96 66 27 16 9 339
206 208 209 206 207 210 208 202 206 209 205 200 191 183 170 157 151 144 137 134 129 127 131 137 138 136 136 134 132 130 127 128 125 122 120 119 118 115 111 110 108 108 106 104 102 103 105 106 109 109 106 108 108 107 107 103 96 91 91 97 106 112 117 125 132 136 128 127 138 134 139 152 148 165 177 163 146 121 76 48 48 40 27 19 359
208 210 210 210 211 215 215 206 204 209 208 206 200 193 183 165 157 154 152 149 136 132 138 140 140 142 145 143 141 138 135 134 129 127 126 124 122 118 114 111 108 107 105 105 106 106 108 111 111 108 111 118 116 110 101 95 90 89 92 98 109 120 125 122 116 113 98 88 93 97 107 135 154 165 146 130 113 94 84 68 59 56 36 20 10
208 210 211 211 213 217 220 214 207 208 210 210 207 201 192 175 164 162 162 160 148 144 146 143 143 146 147 149 150 148 144 141 138 138 135 127 122 118 116 113 109 108 107 110 114 113 112 115 114 112 118 122 117 107 95 95 96 89 89 96 107 114 118 119 113 107 92 75 76 88 99 95 82 78 98 114 112 108 112 93 79 78 57 35 14
208 212 213 213 215 218 222 222 213 208 209 212 211 207 201 187 174 169 167 167 163 160 156 151 150 147 146 149 149 147 146 143 142 141 137 132 126 121 116 112 110 108 108 111 117 118 114 114 114 114 119 118 116 115 108 99 94 89 85 84 90 98 108 118 120 122 115 86 78 86 92 86 77 73 73 78 92 107 114 83 82 89 79 78 63
207 211 213 216 217 219 223 226 220 211 209 213 214 210 208 198 186 178 172 171 174 174 168 162 160 154 147 144 142 143 143 138 135 130 125 129 129 124 115 107 106 106 106 107 110 109 107 107 112 116 118 115 112 114 113 104 90 85 84 81 82 91 104 115 120 121 113 97 83 74 73 82 90 100 98 82 70 86 86 63 67 77 64 60 69
206 205 206 213 217 219 222 224 223 217 210 212 215 213 212 207 197 188 179 177 180 182 181 174 170 167 157 148 146 147 144 139 136 131 126 129 130 121 110 101 99 100 98 102 105 104 103 104 107 110 111 110 110 110 111 109 97 86 82 82 84 90 103 113 115 112 99 91 87 78 66 66 75 82 84 91 108 89 77 61 36 44 42 30 23
208 207 206 211 216 218 220 222 223 220 214 214 216 215 215 213 206 198 189 187 186 186 191 188 179 177 171 163 162 157 152 152 146 139 135 137 137 128 120 112 104 97 91 96 103 103 102 101 100 102 106 110 115 118 117 112 107 101 93 88 87 86 91 100 101 98 93 78 67 65 54 40 29 37 54 66 72 67 70 76 86 66 12 14 7
210 214 214 214 219 220 221 223 222 220 217 217 217 216 217 215 211 205 197 197 196 192 196 196 189 188 184 182 182 165 157 166 160 148 147 150 146 139 139 139 120 101 93 95 101 101 99 99 102 107 113 117 119 122 122 117 112 105 98 93 89 84 83 87 88 87 90 82 68 60 50 40 20 17 26 16 32 49 41 54 84 99 37 43 42
211 218 220 220 224 225 224 225 223 221 218 218 219 217 220 218 213 209 203 203 205 202 203 200 198 199 195 195 200 181 164 175 175 159 158 161 153 150 156 154 127 107 104 104 103 103 102 103 109 115 122 127 127 128 131 129 123 114 107 103 97 89 81 78 81 84 87 85 83 82 71 66 44 22 26 10 8 20 19 24 41 45 34 61 68
211 216 222 223 224 223 224 223 222 223 218 215 219 218 220 221 215 210 207 206 209 210 210 206 204 207 205 203 208 200 183 186 187 172 167 168 157 158 169 169 156 132 121 126 125 122 119 118 124 128 135 141 143 143 142 137 134 129 121 114 103 95 88 81 80 82 85 86 86 84 79 77 63 45 40 25 358 2 20 21 15 18 16 27 44
213 213 219 223 223 221 224 225 220 221 215 211 220 220 219 223 218 212 210 209 210 213 216 213 210 211 211 209 211 212 207 205 203 189 179 180 172 165 177 193 191 171 147 150 149 145 145 145 147 149 153 155 156 156 149 144 143 137 131 127 114 102 97 95 90 85 86 89 90 88 83 79 73 68 57 40 26 18 31 34 17 16 11 6 19
215 214 215 219 222 223 226 226 219 220 218 214 220 219 217 224 223 216 214 213 213 214 217 217 215 215 216 214 212 214 216 213 210 204 202 204 192 175 182 202 202 191 194 188 174 166 161 164 168 169 170 165 162 159 151 149 147 135 133 132 124 115 110 107 103 97 95 90 94 99 94 87 84 86 83 60 57 49 43 46 32 15 8 3 9
221 218 215 216 222 228 229 226 219 220 221 219 221 219 217 222 224 219 215 216 217 217 219 219 217 218 219 219 216 218 220 216 212 214 219 218 207 196 199 204 199 199 211 205 192 183 172 173 182 183 184 177 169 163 152 153 151 137 140 136 125 130 132 132 127 112 106 101 108 117 110 103 100 102 101 79 71 69 49 41 41 29 14 8 7
229 227 223 218 220 227 230 226 221 219 219 218 219 220 218 219 222 221 218 218 219 220 222 222 219 219 219 221 221 221 223 222 221 224 225 222 216 213 216 215 208 207 214 210 205 204 188 182 190 191 191 187 178 172 162 157 154 146 151 149 137 159 172 175 177 156 143 174 192 141 134 122 109 116 120 76 44 56 52 28 24 29 16 4 3
228 227 225 222 222 224 226 226 222 217 216 219 219 219 219 219 222 224 224 223 221 222 226 225 222 220 219 222 221 221 224 226 228 229 228 226 224 223 226 229 227 222 218 213 214 217 205 191 200 202 197 194 190 184 176 171 172 170 161 158 172 206 216 228 233 220 214 228 230 143 138 103 55 103 132 308 331 12 39 357 341 348 340 342 354
223 223 220 222 226 223 222 225 224 217 214 220 223 220 219 219 221 224 226 226 225 226 229 228 226 223 220 222 223 222 225 228 230 233 233 232 230 228 228 230 234 233 227 221 220 221 216 205 207 210 206 203 202 197 190 186 190 195 192 183 206 233 233 243 257 249 243 245 251 246 147 335 346 343 314 306 305 322 332 291 298 306 308 320 338
218 219 218 224 225 219 214 218 223 221 212 214 223 226 222 218 220 225 228 229 227 226 228 229 228 226 221 220 222 223 225 228 232 235 236 235 234 232 229 227 230 233 233 230 226 223 221 220 220 222 218 213 212 212 205 200 200 205 215 217 223 237 240 244 255 256 259 263 270 280 278 268 268 275 291 297 299 299 289 281 289 295 302 311 321
216 211 210 219 221 213 209 213 220 221 210 208 219 226 226 221 219 222 227 230 229 226 227 227 229 231 227 222 220 221 223 225 229 233 235 234 234 232 231 230 229 229 232 234 231 228 223 223 228 233 231 224 222 225 222 215 210 209 219 231 234 238 241 247 254 255 255 259 265 275 275 271 268 267 269 273 282 291 295 299 300 298 302 303 307
220 210 206 212 216 210 207 211 218 219 212 209 215 217 222 225 219 218 222 225 226 225 226 227 228 231 231 227 224 223 223 223 226 229 232 234 234 232 231 231 230 229 229 230 231 232 229 227 231 235 237 236 235 234 230 223 218 213 219 231 237 240 242 243 248 250 250 250 252 255 259 265 267 262 261 260 266 278 286 288 285 285 289 291 294
224 217 210 209 212 211 209 211 216 218 214 211 213 213 216 222 222 220 220 221 220 221 224 228 229 229 230 231 229 225 225 226 227 229 229 232 234 234 233 232 231 231 230 229 229 230 230 230 234 235 234 237 238 238 237 232 227 222 222 227 232 237 241 242 244 246 247 246 246 249 252 257 264 268 268 265 262 266 270 269 268 273 283 288 289
231 223 215 211 212 214 214 212 213 218 218 214 213 213 215 220 224 225 226 225 221 218 221 226 229 229 229 232 230 227 225 226 227 229 229 230 231 232 234 234 233 233 231 232 233 231 229 230 233 235 234 232 232 233 236 239 237 231 229 229 231 235 239 240 242 245 247 246 246 250 253 256 261 267 269 268 267 267 270 272 274 271 271 273 273
229 220 218 217 218 219 219 215 213 218 221 216 212 213 213 218 224 228 230 229 222 222 226 227 232 234 231 232 234 233 231 228 228 230 230 231 232 232 234 235 235 234 232 233 235 233 232 232 233 236 237 234 231 231 233 237 240 238 234 232 234 238 240 238 239 243 248 250 250 252 256 258 261 265 267 268 266 265 268 271 273 268 267 272 272
215 208 213 218 221 224 223 219 217 219 220 216 213 212 213 215 221 224 226 223 217 220 222 215 227 241 238 237 240 239 239 237 236 237 235 233 234 234 235 236 237 239 238 236 236 236 235 234 235 238 241 241 238 236 235 236 239 241 240 240 241 243 244 241 240 243 248 251 252 255 258 258 258 259 263 265 263 259 257 257 261 262 262 265 265
207 203 206 209 215 220 220 219 222 222 219 214 211 212 215 215 217 220 220 215 210 215 217 212 226 242 243 243 247 244 243 244 242 243 243 240 239 239 239 239 240 243 243 241 239 239 238 236 235 237 240 243 242 241 240 238 239 241 243 246 246 246 246 245 244 245 250 254 254 255 258 259 258 258 258 261 261 259 257 257 260 260 256 257 262
202 197 198 203 209 214 216 219 223 223 219 214 212 217 220 219 218 221 223 222 220 227 230 226 232 239 235 238 246 245 244 245 244 243 242 241 242 242 243 243 242 243 244 244 243 242 241 238 235 236 239 242 243 244 244 243 243 244 243 247 250 251 252 251 249 248 251 257 259 258 260 260 261 262 259 256 255 254 254 253 256 259 260 263 269
210 201 198 205 210 208 209 214 217 216 213 213 216 219 223 221 220 222 226 228 229 233 236 233 234 234 224 222 232 240 243 244 244 242 240 239 238 239 239 238 238 236 236 239 242 245 246 243 239 237 239 242 243 243 244 244 245 246 244 245 249 253 256 256 254 251 250 254 258 261 262 261 261 264 265 261 258 257 258 257 256 258 262 265 269
235 227 217 215 213 207 202 201 203 203 202 207 215 217 218 218 220 223 229 232 232 233 236 235 233 230 224 223 229 237 242 244 244 241 240 241 241 240 239 238 237 236 232 231 233 235 239 242 242 239 239 243 245 244 245 245 246 246 246 246 248 251 253 256 258 258 255 253 254 258 260 258 257 259 263 265 265 264 264 263 261 260 262 264 266
240 234 222 214 210 205 198 194 198 205 205 204 210 215 214 215 223 228 230 233 236 238 240 238 232 227 227 232 237 239 240 242 244 243 242 243 244 242 242 241 241 240 236 233 231 231 231 234 240 242 240 241 243 244 245 246 247 248 248 248 250 250 251 253 256 259 258 254 251 251 254 256 256 255 254 257 259 260 261 263 263 265 266 267 267
224 220 217 214 209 202 200 201 206 212 211 204 205 212 212 212 225 234 234 232 234 239 242 240 234 229 228 233 238 241 241 242 244 244 243 243 245 244 242 242 241 241 241 238 237 238 235 230 232 237 239 239 239 240 243 246 248 249 249 249 250 251 253 254 256 258 258 254 251 248 249 254 257 256 254 253 254 256 258 260 262 264 266 267 269
223 223 224 222 212 204 206 208 205 202 200 199 203 208 209 208 217 228 232 230 228 228 231 234 235 233 231 233 237 241 243 242 243 244 244 243 244 245 243 242 241 242 245 244 243 245 242 234 232 236 241 244 244 242 242 244 245 246 247 248 248 251 255 257 259 259 257 256 255 252 251 253 256 256 255 253 253 255 257 259 260 261 263 266 269
230 224 219 218 217 215 216 212 205 200 198 198 199 202 205 208 213 219 223 219 212 210 213 219 227 232 233 235 239 242 243 241 239 241 243 243 243 244 245 245 242 241 242 245 247 249 249 245 243 241 241 244 248 249 247 245 244 245 246 248 248 250 251 253 256 257 255 256 257 256 254 255 257 257 257 256 256 255 256 258 258 257 258 261 264
229 215 203 207 215 219 222 222 218 215 212 209 208 207 205 203 205 212 220 217 203 199 205 215 223 230 235 239 244 247 247 242 238 236 237 241 243 244 248 251 250 246 244 246 248 250 250 250 248 246 241 239 243 250 252 250 249 249 250 252 254 254 251 252 255 257 255 254 254 254 254 256 258 258 257 257 257 255 254 256 257 257 256 257 259
232 227 212 210 212 216 226 227 222 222 224 221 216 211 211 212 208 207 216 225 220 210 211 222 229 234 238 242 246 250 247 241 238 235 235 238 243 245 248 253 255 255 254 255 253 251 251 250 248 247 246 244 244 249 253 252 252 254 256 259 260 255 250 251 253 254 255 255 253 252 252 254 256 256 256 256 256 256 255 256 257 258 259 259 259
230 233 231 225 226 234 235 227 228 235 235 226 218 215 223 235 238 232 231 236 242 241 237 237 240 244 246 245 247 249 245 239 236 234 234 237 242 245 247 251 255 258 260 260 256 252 250 250 249 247 248 251 252 254 256 256 258 260 263 268 269 264 260 260 258 256 256 257 255 252 251 252 254 255 255 255 256 256 257 259 259 259 260 261 260
225 228 231 230 232 237 233 224 231 237 231 228 236 240 242 248 253 254 254 253 256 257 254 250 248 250 253 252 250 249 246 245 243 239 239 240 241 242 243 247 254 259 260 259 256 251 248 249 249 249 250 252 254 257 261 264 265 265 265 267 269 269 268 269 267 263 259 256 255 254 252 251 252 255 255 254 254 255 255 257 258 259 260 262 263
221 222 227 228 228 231 231 227 229 229 222 223 233 238 242 248 254 258 261 263 264 260 256 255 253 252 252 252 252 251 248 249 250 250 250 250 249 247 245 246 252 257 258 257 256 253 249 247 248 248 248 251 256 260 262 263 265 266 267 267 267 267 267 267 267 266 262 256 252 253 253 251 250 251 253 253 254 254 255 256 256 257 258 260 261
225 225 228 231 231 232 233 230 228 229 224 218 223 233 244 252 255 255 253 255 259 259 257 255 253 253 254 253 253 251 249 249 250 251 253 255 257 257 255 254 255 255 256 256 257 256 253 250 249 247 247 251 255 259 261 262 262 263 265 266 266 266 266 266 265 264 262 258 251 248 249 250 248 247 249 251 252 253 255 256 254 253 254 256 259
233 233 233 235 235 234 236 234 234 240 244 242 244 249 251 253 255 256 254 252 252 255 257 257 255 254 254 255 255 255 253 252 251 252 254 256 258 259 259 258 258 257 257 258 260 260 257 254 251 248 247 248 250 254 259 263 265 266 264 263 263 263 262 262 261 259 260 259 254 249 248 247 245 245 246 248 249 251 252 254 253 253 254 257 258
237 238 238 238 238 238 239 238 239 244 248 250 251 250 246 247 250 254 257 257 255 255 255 257 258 257 255 254 255 256 257 257 257 256 255 256 257 258 259 259 259 259 259 259 260 259 257 256 255 252 250 249 248 251 259 266 272 271 264 257 256 259 261 263 261 257 255 257 258 257 255 252 248 245 246 247 249 250 251 252 253 254 256 257 258
238 240 241 241 241 239 237 232 230 234 238 240 243 245 246 248 251 254 257 258 258 258 256 255 256 257 257 255 254 254 256 258 259 259 258 257 257 258 259 260 260 261 260 258 259 260 260 261 261 260 258 256 255 259 267 275 275 265 252 246 249 259 274 285 279 265 256 255 259 261 262 260 255 251 249 249 249 251 253 254 254 255 256 257 258
237 239 240 241 241 241 240 233 224 223 226 229 234 239 243 247 251 254 256 255 255 256 257 256 254 254 256 256 254 252 251 253 255 256 257 258 257 257 258 259 260 261 261 260 260 262 263 263 263 262 262 262 264 268 272 275 270 258 250 250 255 264 280 293 292 278 263 256 259 263 264 262 258 255 253 251 249 249 252 254 255 256 257 258 259
242 243 243 244 243 243 244 241 232 226 226 227 230 234 239 244 248 251 251 251 252 253 254 255 255 254 253 254 254 252 249 248 250 253 255 256 257 257 257 258 258 259 259 260 260 261 261 262 262 263 263 263 265 267 264 260 257 257 256 257 262 271 279 284 282 277 272 266 264 268 270 264 258 254 254 254 252 251 252 254 256 258 259 259 259
251 249 248 248 247 245 245 244 241 236 233 232 233 235 238 242 244 246 247 248 249 250 251 252 254 256 255 253 254 254 252 249 248 249 251 253 254 255 254 255 256 256 255 256 257 258 259 261 261 262 261 262 262 259 252 249 250 254 258 262 268 274 275 274 272 271 269 265 264 268 276 275 264 255 252 254 256 257 257 258 259 260 261 261 260
258 256 254 253 250 249 247 247 246 245 243 242 242 242 243 244 245 247 248 249 249 249 249 249 251 255 257 256 255 254 254 253 251 249 249 250 251 252 252 253 254 254 254 254 254 255 257 259 259 259 258 259 259 256 252 250 251 255 258 262 264 264 265 266 265 258 252 253 257 261 265 271 275 272 265 262 262 262 262 262 263 264 264 263 262
259 256 256 255 253 251 250 249 249 249 250 251 251 251 251 251 250 250 251 250 249 249 248 248 248 250 253 256 256 254 253 253 253 253 252 251 250 250 251 251 252 253 253 254 253 254 255 256 256 257 257 257 256 254 253 252 253 255 257 259 260 260 259 258 254 249 248 252 256 259 260 264 274 283 283 278 272 267 264 264 266 268 267 265 263
258 255 254 254 254 252 251 250 250 251 252 253 254 254 255 255 255 254 253 251 249 248 248 248 248 247 248 251 255 256 254 252 252 253 254 253 252 251 251 251 251 252 253 254 254 254 255 255 255 257 257 257 256 255 255 255 256 257 257 258 259 257 254 251 249 248 250 252 253 258 262 267 273 279 280 279 275 270 267 266 266 267 266 262 259
257 256 255 254 254 254 254 255 255 256 256 255 253 253 254 254 255 255 254 252 250 249 249 248 248 249 248 248 250 253 255 253 251 251 252 254 254 254 253 253 252 252 252 253 254 255 255 255 255 256 257 257 257 257 257 257 258 258 258 257 257 254 254 255 255 255 256 258 261 264 267 270 272 274 275 275 272 268 266 264 263 263 262 258 254
259 257 256 255 255 254 255 256 256 256 256 255 254 253 253 254 253 253 253 252 251 250 250 248 248 249 250 249 248 250 251 252 250 250 251 253 255 256 256 256 256 255 254 253 253 254 255 255 254 254 255 257 257 258 258 258 258 258 258 257 257 257 258 260 261 261 262 265 268 269 270 271 271 271 271 270 268 266 265 263 262 263 262 261 259
Height
5923 5924 5924 5926 5927 5927 5929 5929 5930 5930 5931 5931 5932 5933 5933 5934 5935 5937 5938 5939 5939 5940 5940 5940 5941 5942 5943 5943 5944 5944 5945 5945 5946 5946 5947 5948 5948 5949 5950 5951 5951 5952 5952 5953 5954 5955 5955 5955 5956 5956 5956 5956 5956 5956 5957 5957 5957 5957 5958 5958 5959 5960 5960 5961 5962 5961 5961 5962 5962 5963 5963 5963 5964 5964 5964 5963 5963 5963 5964 5964 5964 5964 5965 5965 5965
5923 5924 5925 5926 5927 5927 5929 5930 5930 5931 5932 5932 5933 5933 5934 5935 5936 5937 5938 5939 5940 5941 5942 5942 5943 5943 5944 5945 5945 5946 5947 5947 5948 5949 5949 5950 5950 5951 5951 5952 5952 5953 5953 5954 5955 5955 5955 5956 5956 5956 5956 5956 5957 5957 5957 5958 5958 5958 5959 5959 5960 5960 5960 5961 5962 5962 5962 5963 5964 5963 5963 5963 5964 5964 5964 5964 5964 5964 5965 5965 5966 5966 5966 5966 5966
5922 5923 5924 5925 5926 5927 5928 5930 5931 5932 5933 5933 5934 5934 5935 5936 5937 5938 5939 5940 5940 5941 5942 5943 5944 5945 5946 5946 5947 5948 5949 5949 5950 5951 5951 5951 5952 5952 5953 5953 5954 5954 5954 5954 5955 5956 5956 5956 5956 5956 5956 5957 5957 5958 5958 5959 5959 5959 5959 5960 5960 5960 5961 5961 5962 5963 5963 5963 5963 5963 5963 5963 5964 5964 5964 5964 5965 5965 5967 5967 5967 5967 5967 5967 5967
5922 5923 5924 5925 5926 5927 5928 5929 5931 5932 5933 5933 5934 5935 5935 5936 5937 5938 5939 5940 5941 5941 5942 5944 5945 5946 5947 5948 5948 5949 5950 5951 5951 5952 5952 5953 5953 5954 5954 5954 5954 5955 5955 5955 5955 5956 5956 5956 5957 5957 5957 5957 5958 5959 5959 5959 5959 5960 5960 5960 5960 5961 5962 5962 5963 5963 5964 5963 5963 5963 5963 5963 5963 5963 5964 5965 5966 5967 5969 5969 5969 5968 5968 5968 5967
5921 5922 5923 5925 5926 5927 5928 5929 5930 5932 5933 5934 5935 5935 5936 5937 5938 5939 5940 5941 5941 5942 5942 5944 5945 5947 5948 5949 5949 5950 5951 5952 5952 5953 5953 5954 5954 5955 5955 5955 5955 5955 5955 5955 5955 5956 5956 5957 5958 5958 5958 5958 5959 5959 5959 5959 5960 5960 5961 5961 5961 5961 5962 5962 5963 5964 5964 5964 5964 5964 5964 5963 5964 5963 5964 5966 5967 5968 5969 5969 5969 5968 5968 5967 5967
5920 5921 5923 5924 5925 5926 5927 5929 5930 5931 5933 5934 5935 5936 5936 5937 5938 5939 5940 5941 5942 5943 5943 5944 5945 5946 5947 5948 5949 5950 5951 5952 5953 5954 5954 5955 5955 5955 5956 5956 5956 5956 5956 5956 5956 5956 5957 5958 5958 5958 5958 5958 5959 5959 5960 5960 5961 5961 5962 5962 5962 5962 5962 5962 5963 5964 5964 5964 5964 5964 5964 5964 5964 5964 5964 5966 5968 5969 5968 5968 5968 5968 5967 5967 5967
5919 5920 5922 5924 5924 5925 5926 5928 5929 5931 5932 5934 5935 5936 5937 5938 5938 5939 5940 5941 5942 5943 5944 5944 5945 5946 5947 5948 5949 5950 5951 5952 5953 5954 5955 5955 5955 5956 5956 5957 5957 5957 5956 5956 5956 5957 5957 5958 5958 5958 5958 5959 5959 5959 5960 5961 5961 5962 5962 5963 5963 5963 5963 5963 5963 5964 5964 5965 5965 5965 5964 5964 5964 5964 5964 5965 5967 5968 5968 5968 5969 5968 5967 5968 5968
5918 5919 5921 5923 5924 5925 5926 5927 5929 5930 5932 5933 5935 5936 5937 5938 5938 5939 5940 5941 5942 5943 5944 5945 5945 5946 5947 5948 5949 5950 5951 5952 5953 5954 5955 5955 5956 5956 5957 5957 5957 5957 5957 5957 5957 5957 5957 5958 5958 5958 5959 5959 5959 5960 5960 5961 5962 5962 5963 5963 5963 5963 5964 5964 5964 5964 5965 5965 5965 5965 5965 5964 5964 5964 5964 5965 5966 5966 5967 5968 5969 5969 5968 5968 5967
5917 5918 5920 5922 5923 5924 5925 5926 5928 5929 5931 5933 5934 5936 5937 5938 5938 5939 5940 5941 5942 5943 5944 5945 5946 5946 5947 5948 5949 5950 5951 5952 5953 5954 5955 5956 5956 5957 5957 5957 5958 5958 5958 5957 5957 5957 5958 5958 5959 5959 5960 5960 5961 5961 5961 5962 5963 5963 5964 5964 5964 5964 5964 5965 5965 5965 5965 5965 5965 5965 5965 5965 5964 5964 5964 5965 5965 5966 5967 5968 5968 5968 5967 5967 5966
5916 5917 5918 5920 5921 5922 5924 5925 5927 5928 5930 5932 5933 5935 5936 5938 5939 5939 5940 5941 5942 5943 5943 5945 5946 5946 5947 5948 5949 5950 5951 5952 5953 5954 5955 5955 5956 5957 5957 5958 5958 5958 5958 5958 5958 5958 5958 5959 5959 5960 5960 5961 5961 5962 5962 5963 5963 5964 5964 5964 5965 5965 5965 5965 5965 5965 5965 5965 5965 5965 5965 5965 5965 5964 5965 5965 5965 5966 5968 5968 5968 5967 5966 5966 5966
5914 5916 5917 5919 5920 5921 5922 5924 5926 5927 5930 5931 5933 5934 5936 5937 5938 5939 5940 5941 5942 5943 5943 5944 5945 5946 5947 5948 5949 5950 5951 5952 5953 5954 5954 5955 5956 5957 5958 5958 5959 5959 5959 5959 5959 5959 5959 5959 5960 5960 5961 5962 5962 5963 5963 5963 5964 5964 5964 5964 5965 5965 5965 5965 5965 5965 5965 5965 5965 5965 5965 5965 5965 5965 5965 5965 5965 5966 5966 5967 5968 5968 5967 5967 5966
5913 5914 5916 5917 5919 5920 5921 5923 5924 5926 5928 5930 5932 5934 5935 5936 5938 5939 5940 5941 5942 5942 5943 5944 5945 5946 5947 5948 5949 5950 5951 5952 5953 5954 5955 5955 5956 5957 5958 5959 5959 5959 5959 5959 5959 5959 5960 5960 5960 5961 5961 5962 5962 5963 5963 5963 5964 5964 5964 5964 5965 5965 5965 5965 5965 5965 5965 5965 5965 5965 5965 5965 5965 5965 5965 5965 5965 5966 5966 5966 5967 5967 5967 5967 5966
5912 5913 5914 5916 5917 5919 5920 5921 5923 5925 5927 5929 5931 5932 5934 5935 5937 5939 5940 5941 5941 5942 5943 5944 5945 5946 5947 5948 5949 5950 5951 5952 5953 5954 5955 5955 5956 5957 5958 5958 5959 5959 5959 5959 5960 5960 5960 5960 5960 5961 5961 5962 5962 5963 5963 5963 5963 5963 5963 5964 5964 5964 5965 5965 5965 5965 5965 5965 5965 5966 5966 5966 5966 5966 5966 5966 5966 5966 5966 5966 5966 5966 5965 5965 5966
5910 5911 5913 5914 5915 5917 5918 5920 5922 5923 5926 5928 5929 5931 5933 5934 5936 5938 5939 5941 5941 5941 5942 5943 5945 5945 5947 5948 5949 5950 5951 5952 5953 5954 5955 5955 5956 5957 5957 5958 5959 5959 5959 5960 5960 5960 5960 5960 5960 5961 5961 5961 5962 5962 5962 5963 5963 5963 5963 5963 5964 5964 5964 5964 5965 5965 5965 5966 5965 5965 5966 5966 5966 5966 5966 5966 5966 5966 5966 5967 5966 5966 5965 5965 5965
5909 5910 5912 5913 5914 5915 5916 5918 5920 5922 5924 5927 5928 5930 5932 5933 5935 5937 5938 5940 5941 5941 5941 5943 5944 5945 5946 5947 5949 5950 5951 5952 5953 5953 5954 5955 5956 5956 5957 5958 5958 5959 5959 5959 5960 5960 5960 5960 5960 5960 5961 5961 5962 5962 5962 5962 5962 5962 5962 5963 5963 5963 5963 5964 5964 5964 5965 5965 5965 5965 5965 5966 5966 5966 5966 5966 5966 5966 5966 5966 5966 5966 5965 5964 5964
5907 5909 5910 5911 5912 5913 5915 5916 5918 5920 5923 5925 5927 5928 5930 5932 5933 5935 5937 5938 5940 5940 5941 5942 5943 5944 5945 5946 5948 5949 5950 5952 5952 5952 5953 5954 5955 5955 5956 5957 5957 5958 5958 5959 5959 5960 5959 5959 5960 5960 5961 5961 5961 5962 5962 5962 5962 5962 5962 5962 5962 5962 5963 5963 5963 5963 5964 5964 5964 5965 5965 5965 5966 5965 5965 5965 5965 5965 5965 5965 5965 5965 5964 5964 5964
5906 5907 5908 5909 5911 5912 5914 5916 5917 5919 5921 5924 5925 5926 5928 5930 5932 5933 5935 5936 5938 5939 5940 5941 5942 5943 5944 5945 5947 5948 5949 5951 5951 5952 5953 5954 5954 5955 5955 5956 5957 5957 5958 5958 5959 5959 5959 5959 5959 5960 5960 5961 5961 5961 5962 5962 5962 5962 5962 5962 5962 5962 5962 5963 5963 5963 5963 5963 5963 5964 5964 5965 5965 5965 5965 5964 5964 5964 5964 5963 5963 5964 5964 5963 5963
5904 5905 5906 5908 5909 5910 5913 5914 5916 5918 5919 5921 5923 5925 5926 5929 5930 5932 5933 5935 5936 5937 5938 5939 5940 5942 5943 5944 5945 5947 5948 5949 5950 5951 5952 5953 5953 5954 5955 5956 5956 5957 5957 5957 5958 5958 5958 5958 5959 5959 5960 5960 5961 5961 5961 5961 5961 5961 5962 5962 5962 5962 5962 5962 5962 5962 5963 5963 5963 5963 5964 5964 5964 5964 5964 5964 5964 5963 5963 5963 5963 5963 5963 5963 5963
5902 5903 5904 5906 5907 5908 5911 5913 5914 5916 5918 5919 5921 5923 5925 5927 5929 5930 5932 5933 5934 5936 5937 5938 5939 5940 5942 5943 5944 5945 5946 5948 5949 5950 5951 5951 5952 5953 5954 5955 5956 5956 5957 5957 5957 5958 5958 5958 5958 5959 5959 5960 5960 5960 5961 5961 5961 5961 5961 5961 5961 5961 5961 5961 5962 5962 5962 5963 5963 5963 5963 5964 5964 5964 5964 5964 5963 5963 5963 5963 5963 5963 5963 5963 5963
5901 5902 5903 5904 5905 5907 5910 5912 5912 5914 5916 5918 5919 5921 5923 5925 5927 5929 5930 5932 5933 5935 5936 5937 5937 5938 5940 5941 5942 5943 5945 5946 5947 5948 5949 5950 5950 5952 5953 5954 5954 5955 5956 5957 5957 5957 5957 5957 5957 5958 5958 5959 5959 5960 5960 5961 5961 5961 5961 5961 5961 5961 5961 5961 5961 5961 5962 5962 5962 5962 5963 5963 5963 5963 5963 5963 5963 5963 5963 5963 5962 5962 5962 5962 5962
5899 5900 5901 5903 5904 5905 5908 5910 5910 5912 5914 5916 5918 5919 5921 5923 5925 5927 5928 5930 5932 5933 5934 5935 5936 5937 5938 5939 5941 5942 5943 5945 5946 5947 5948 5949 5949 5951 5952 5952 5953 5954 5955 5956 5956 5956 5956 5956 5956 5957 5957 5958 5959 5959 5959 5960 5960 5960 5960 5961 5961 5961 5961 5961 5961 5961 5961 5961 5961 5962 5962 5962 5962 5963 5963 5963 5962 5962 5962 5962 5962 5962 5962 5962 5962
5897 5897 5898 5901 5903 5904 5906 5908 5909 5910 5912 5914 5915 5917 5918 5920 5922 5924 5925 5927 5929 5931 5932 5933 5934 5935 5936 5937 5939 5940 5941 5942 5944 5945 5946 5947 5948 5949 5950 5951 5952 5953 5953 5954 5954 5955 5955 5955 5955 5956 5956 5957 5958 5958 5959 5959 5959 5959 5959 5960 5960 5960 5960 5960 5960 5960 5960 5960 5961 5961 5961 5961 5961 5961 5962 5962 5962 5961 5961 5962 5962 5962 5962 5961 5961
5893 5894 5895 5897 5900 5902 5903 5904 5906 5907 5908 5910 5912 5914 5916 5918 5919 5921 5922 5924 5926 5928 5929 5931 5933 5933 5934 5935 5937 5938 5939 5940 5941 5943 5944 5945 5946 5947 5948 5949 5951 5951 5952 5952 5953 5953 5954 5954 5954 5955 5955 5956 5956 5957 5957 5958 5958 5958 5958 5959 5959 5959 5960 5960 5960 5960 5960 5960 5960 5960 5960 5960 5960 5960 5961 5961 5961 5961 5961 5961 5961 5961 5961 5961 5961
5891 5893 5894 5896 5898 5899 5899 5900 5902 5903 5904 5906 5909 5912 5914 5916 5917 5918 5920 5922 5924 5925 5927 5929 5930 5931 5932 5933 5935 5936 5938 5939 5940 5941 5942 5944 5945 5946 5947 5948 5949 5950 5950 5951 5951 5951 5952 5953 5953 5954 5954 5954 5955 5956 5956 5957 5957 5957 5957 5958 5958 5958 5958 5959 5959 5959 5959 5959 5959 5959 5959 5959 5960 5960 5960 5960 5960 5960 5960 5960 5960 5961 5961 5961 5961
5891 5893 5896 5897 5897 5897 5897 5898 5900 5900 5901 5903 5906 5909 5912 5913 5915 5917 5918 5920 5922 5924 5925 5926 5927 5929 5929 5931 5932 5934 5935 5937 5938 5939 5941 5942 5943 5944 5945 5946 5947 5947 5948 5949 5949 5949 5950 5951 5952 5952 5953 5953 5954 5954 5955 5955 5956 5956 5956 5956 5957 5957 5957 5958 5958 5958 5958 5958 5958 5958 5959 5959 5959 5959 5959 5959 5959 5959 5959 5959 5960 5960 5960 5960 5960
5889 5891 5893 5894 5895 5895 5894 5895 5896 5897 5899 5901 5903 5906 5908 5911 5913 5915 5916 5917 5920 5922 5923 5924 5925 5927 5928 5929 5930 5931 5933 5934 5935 5937 5938 5940 5941 5942 5942 5943 5944 5945 5946 5947 5947 5947 5948 5949 5950 5951 5951 5952 5952 5953 5953 5954 5954 5954 5955 5955 5955 5956 5956 5956 5956 5956 5956 5956 5957 5957 5958 5958 5958 5958 5958 5958 5958 5959 5959 5959 5959 5959 5959 5959 5959
5885 5887 5888 5889 5890 5890 5891 5892 5894 5895 5896 5899 5901 5903 5905 5908 5910 5912 5914 5915 5917 5919 5921 5922 5923 5925 5926 5927 5928 5929 5930 5931 5932 5934 5935 5937 5938 5939 5940 5941 5942 5943 5944 5944 5945 5945 5946 5947 5948 5949 5950 5951 5951 5952 5952 5952 5953 5953 5953 5953 5954 5954 5954 5954 5954 5955 5955 5955 5956 5956 5956 5956 5957 5957 5957 5957 5958 5958 5958 5958 5958 5958 5958 5958 5958
5883 5883 5882 5883 5885 5888 5891 5894 5895 5896 5897 5899 5901 5902 5904 5906 5908 5910 5912 5913 5914 5916 5918 5919 5921 5923 5924 5926 5927 5927 5928 5928 5929 5931 5932 5933 5934 5936 5937 5938 5940 5941 5942 5942 5943 5943 5944 5945 5946 5947 5948 5949 5950 5950 5950 5951 5951 5951 5951 5952 5952 5952 5953 5953 5953 5953 5954 5954 5955 5955 5955 5955 5956 5956 5956 5956 5956 5956 5956 5956 5957 5957 5957 5957 5957
5883 5883 5882 5881 5883 5887 5890 5893 5895 5897 5897 5898 5899 5901 5903 5904 5906 5907 5909 5910 5912 5913 5914 5916 5918 5920 5921 5923 5924 5925 5925 5926 5927 5928 5929 5930 5930 5932 5933 5934 5935 5936 5938 5939 5940 5941 5941 5942 5944 5945 5946 5947 5947 5948 5948 5949 5949 5949 5949 5950 5950 5951 5951 5952 5952 5952 5952 5953 5954 5954 5954 5954 5955 5955 5955 5955 5955 5955 5955 5955 5955 5955 5955 5955 5956
5884 5884 5883 5881 5881 5883 5884 5886 5890 5892 5893 5895 5897 5899 5900 5902 5902 5903 5905 5907 5908 5909 5911 5913 5915 5917 5918 5919 5920 5922 5923 5924 5925 5926 5927 5928 5928 5929 5930 5931 5932 5933 5934 5935 5936 5937 5938 5939 5941 5943 5944 5945 5945 5945 5946 5946 5947 5947 5948 5948 5948 5949 5949 5950 5951 5951 5951 5952 5953 5953 5952 5952 5953 5954 5954 5953 5954 5954 5954 5953 5953 5953 5953 5954 5954
5883 5883 5882 5882 5882 5882 5882 5883 5885 5887 5889 5891 5893 5895 5897 5899 5900 5900 5902 5904 5906 5907 5908 5909 5911 5913 5915 5916 5917 5919 5920 5922 5923 5924 5925 5925 5926 5927 5928 5928 5929 5930 5931 5932 5932 5933 5935 5937 5939 5941 5942 5942 5942 5942 5943 5944 5944 5945 5945 5946 5946 5946 5947 5948 5949 5950 5950 5951 5951 5951 5950 5950 5951 5951 5951 5951 5951 5951 5952 5951 5951 5951 5952 5952 5952
5879 5880 5881 5882 5882 5882 5883 5883 5884 5886 5888 5890 5892 5894 5895 5896 5897 5898 5899 5901 5902 5904 5905 5906 5908 5910 5912 5913 5914 5916 5918 5919 5921 5922 5923 5923 5923 5924 5925 5926 5927 5928 5929 5930 5930 5931 5933 5935 5935 5936 5937 5938 5938 5939 5940 5941 5942 5942 5943 5943 5944 5944 5945 5946 5947 5948 5949 5948 5948 5948 5947 5948 5948 5948 5948 5948 5948 5948 5949 5949 5949 5949 5949 5949 5949
5875 5875 5877 5880 5882 5882 5882 5882 5883 5884 5887 5889 5891 5893 5894 5895 5895 5896 5897 5897 5898 5899 5901 5903 5905 5907 5909 5910 5911 5913 5915 5916 5918 5919 5920 5921 5921 5921 5922 5923 5925 5926 5927 5928 5929 5929 5931 5932 5932 5932 5934 5935 5936 5937 5937 5938 5938 5939 5940 5941 5941 5942 5944 5944 5944 5945 5945 5946 5946 5946 5945 5945 5945 5944 5944 5945 5945 5946 5946 5946 5946 5946 5947 5947 5947
5871 5870 5872 5875 5879 5881 5880 5880 5881 5882 5885 5887 5888 5889 5891 5892 5894 5895 5896 5895 5894 5895 5896 5899 5902 5904 5906 5907 5909 5910 5911 5912 5914 5916 5917 5918 5918 5919 5920 5921 5922 5923 5924 5926 5927 5927 5928 5929 5930 5930 5931 5932 5933 5934 5935 5935 5936 5936 5937 5938 5938 5940 5942 5942 5941 5941 5941 5942 5943 5943 5943 5943 5942 5942 5942 5942 5942 5942 5943 5943 5943 5944 5944 5944 5944
5869 5868 5869 5870 5873 5877 5878 5878 5879 5880 5882 5884 5886 5887 5889 5890 5892 5894 5896 5896 5895 5893 5893 5896 5899 5901 5903 5904 5906 5907 5908 5909 5911 5912 5913 5914 5915 5916 5917 5917 5918 5920 5921 5923 5924 5924 5924 5925 5927 5928 5929 5929 5930 5931 5932 5933 5933 5934 5934 5934 5935 5937 5938 5938 5937 5937 5937 5938 5939 5939 5940 5940 5940 5940 5940 5940 5940 5940 5940 5940 5940 5941 5941 5941 5942
5867 5867 5867 5868 5869 5872 5874 5876 5878 5878 5879 5881 5883 5886 5888 5889 5890 5891 5894 5897 5896 5893 5892 5894 5897 5899 5900 5902 5903 5904 5905 5906 5908 5909 5910 5912 5912 5913 5914 5915 5915 5916 5918 5920 5921 5921 5921 5922 5923 5925 5926 5926 5927 5928 5928 5929 5930 5930 5931 5931 5932 5933 5934 5933 5933 5933 5933 5934 5934 5935 5935 5936 5936 5937 5937 5937 5937 5937 5937 5937 5938 5938 5938 5939 5940
5865 5865 5865 5866 5868 5870 5871 5873 5874 5875 5877 5879 5881 5884 5886 5888 5889 5889 5890 5892 5893 5891 5891 5893 5895 5897 5898 5899 5900 5901 5902 5903 5904 5905 5907 5909 5909 5910 5911 5912 5912 5913 5914 5915 5916 5917 5918 5918 5919 5921 5923 5923 5923 5924 5925 5926 5926 5927 5926 5927 5928 5929 5929 5928 5929 5929 5930 5930 5931 5932 5932 5931 5932 5933 5933 5934 5934 5934 5934 5935 5935 5936 5936 5937 5937
5861 5863 5862 5863 5867 5869 5870 5871 5871 5870 5871 5874 5878 5881 5882 5883 5885 5885 5886 5888 5889 5890 5891 5893 5894 5895 5896 5897 5898 5899 5900 5901 5902 5903 5904 5906 5906 5907 5908 5908 5909 5910 5910 5910 5911 5912 5913 5914 5915 5917 5918 5919 5919 5920 5921 5921 5922 5922 5922 5922 5923 5924 5925 5925 5925 5925 5925 5926 5927 5928 5928 5928 5928 5928 5929 5930 5930 5930 5931 5932 5932 5932 5933 5933 5933
5855 5858 5859 5859 5863 5867 5868 5869 5871 5871 5869 5870 5873 5876 5877 5878 5880 5882 5884 5885 5887 5889 5890 5891 5892 5893 5894 5895 5896 5897 5898 5899 5900 5901 5902 5903 5903 5904 5905 5905 5906 5906 5906 5907 5907 5907 5908 5909 5910 5912 5913 5914 5915 5916 5917 5917 5917 5917 5917 5917 5918 5919 5919 5920 5920 5920 5920 5921 5922 5923 5923 5924 5925 5924 5924 5925 5925 5926 5927 5928 5928 5929 5929 5930 5930
5851 5854 5856 5857 5860 5863 5865 5866 5868 5870 5870 5870 5871 5874 5874 5876 5877 5879 5882 5884 5886 5887 5888 5889 5890 5891 5892 5893 5894 5894 5895 5896 5897 5898 5899 5900 5901 5901 5902 5902 5903 5903 5903 5904 5904 5904 5905 5905 5906 5907 5909 5910 5911 5912 5912 5912 5912 5912 5912 5913 5913 5913 5914 5914 5915 5915 5915 5915 5916 5917 5917 5918 5919 5920 5919 5919 5920 5922 5922 5923 5925 5925 5925 5926 5926
5848 5850 5853 5855 5857 5860 5862 5863 5864 5866 5867 5868 5869 5871 5872 5874 5875 5877 5879 5882 5883 5885 5886 5886 5887 5889 5889 5890 5891 5891 5892 5893 5894 5895 5896 5896 5897 5898 5898 5899 5899 5900 5901 5902 5902 5901 5902 5902 5902 5903 5904 5905 5906 5907 5907 5907 5907 5906 5907 5908 5908 5908 5908 5908 5909 5909 5910 5910 5911 5911 5912 5913 5914 5914 5915 5915 5916 5917 5918 5919 5920 5921 5921 5922 5922
5846 5847 5850 5853 5855 5857 5859 5860 5861 5862 5864 5865 5866 5868 5869 5871 5873 5875 5876 5878 5880 5881 5882 5883 5884 5885 5886 5887 5887 5888 5889 5890 5891 5892 5892 5893 5894 5894 5895 5895 5896 5896 5898 5899 5898 5898 5899 5899 5899 5900 5900 5901 5902 5902 5902 5902 5902 5902 5902 5902 5903 5903 5903 5903 5903 5903 5904 5905 5906 5906 5907 5908 5908 5909 5910 5911 5911 5912 5913 5914 5915 5916 5917 5917 5917
5844 5846 5848 5849 5851 5853 5855 5856 5858 5859 5861 5862 5864 5865 5866 5868 5869 5871 5873 5874 5876 5877 5878 5880 5881 5882 5882 5883 5884 5885 5885 5886 5887 5887 5888 5889 5890 5890 5891 5891 5892 5892 5893 5894 5894 5894 5895 5895 5896 5897 5897 5898 5898 5898 5899 5899 5899 5899 5898 5898 5899 5899 5900 5900 5900 5899 5899 5900 5902 5902 5902 5903 5903 5904 5904 5905 5906 5907 5908 5909 5910 5911 5912 5912 5912
5841 5843 5844 5845 5847 5850 5852 5853 5855 5857 5858 5860 5861 5862 5864 5865 5866 5868 5869 5870 5871 5873 5874 5875 5876 5877 5878 5879 5880 5881 5882 5882 5883 5883 5884 5885 5886 5886 5887 5887 5888 5888 5889 5889 5890 5890 5891 5891 5892 5893 5894 5894 5894 5895 5896 5897 5896 5895 5895 5895 5896 5896 5897 5897 5897 5897 5896 5896 5897 5898 5898 5898 5899 5899 5900 5900 5901 5902 5904 5905 5906 5907 5907 5907 5908
5837 5839 5840 5842 5843 5845 5846 5848 5851 5853 5855 5856 5858 5859 5860 5861 5862 5864 5865 5866 5866 5868 5869 5870 5871 5872 5873 5874 5875 5876 5877 5878 5878 5879 5880 5880 5881 5882 5883 5884 5884 5885 5885 5886 5886 5886 5886 5887 5888 5889 5890 5890 5890 5892 5893 5892 5891 5891 5892 5892 5893 5893 5894 5894 5894 5894 5894 5893 5893 5894 5895 5895 5894 5894 5895 5895 5896 5897 5898 5900 5901 5902 5902 5902 5903
5834 5836 5837 5838 5839 5840 5842 5843 5845 5848 5850 5851 5853 5854 5856 5857 5858 5859 5860 5861 5862 5863 5864 5865 5866 5867 5869 5870 5871 5871 5872 5873 5874 5874 5875 5876 5877 5878 5878 5879 5880 5881 5882 5882 5882 5882 5882 5883 5883 5884 5885 5886 5886 5888 5888 5887 5887 5887 5888 5889 5890 5891 5891 5891 5891 5891 5891 5891 5891 5892 5892 5893 5891 5890 5891 5892 5892 5893 5894 5894 5895 5896 5896 5897 5897
5831 5832 5833 5834 5835 5836 5838 5839 5841 5842 5844 5846 5847 5849 5850 5852 5853 5854 5855 5856 5857 5858 5859 5860 5861 5862 5864 5865 5866 5867 5867 5868 5868 5869 5870 5871 5872 5873 5874 5875 5875 5876 5877 5878 5878 5878 5879 5879 5879 5880 5881 5882 5883 5883 5883 5883 5883 5884 5884 5885 5887 5888 5888 5887 5887 5887 5887 5887 5888 5889 5890 5890 5889 5889 5889 5889 5889 5890 5890 5890 5890 5890 5890 5890 5891
5827 5829 5828 5829 5830 5832 5834 5835 5837 5838 5839 5841 5842 5843 5844 5846 5847 5848 5849 5850 5851 5852 5854 5855 5856 5857 5859 5860 5861 5862 5863 5863 5863 5864 5865 5866 5868 5868 5869 5870 5871 5872 5872 5873 5873 5874 5875 5876 5875 5875 5877 5878 5878 5879 5879 5879 5879 5880 5880 5881 5882 5882 5882 5882 5882 5882 5883 5883 5884 5885 5885 5885 5886 5886 5886 5886 5886 5886 5886 5885 5885 5885 5885 5885 5886
5823 5824 5824 5824 5826 5828 5829 5830 5832 5833 5834 5836 5837 5838 5839 5840 5841 5842 5843 5845 5846 5847 5848 5849 5850 5852 5854 5855 5856 5856 5858 5858 5858 5859 5860 5861 5862 5863 5864 5865 5866 5867 5868 5868 5869 5869 5871 5871 5871 5871 5872 5873 5874 5874 5875 5875 5875 5875 5876 5876 5877 5877 5877 5878 5878 5878 5878 5879 5880 5880 5880 5880 5880 5881 5882 5882 5883 5883 5882 5882 5882 5881 5880 5880 5881
5818 5819 5819 5820 5822 5823 5824 5825 5827 5828 5830 5831 5832 5833 5834 5834 5835 5836 5838 5839 5841 5842 5842 5843 5844 5846 5848 5849 5850 5851 5852 5852 5853 5854 5855 5856 5857 5857 5858 5859 5860 5861 5862 5863 5863 5864 5865 5866 5866 5866 5867 5868 5868 5869 5870 5870 5871 5871 5871 5872 5872 5872 5873 5873 5874 5874 5874 5874 5875 5875 5875 5875 5876 5877 5878 5878 5879 5878 5878 5878 5878 5877 5876 5876 5876
5814 5814 5815 5816 5817 5818 5819 5820 5821 5823 5824 5825 5826 5827 5829 5829 5830 5831 5832 5834 5835 5836 5836 5837 5839 5840 5841 5842 5844 5845 5846 5846 5847 5848 5849 5850 5851 5852 5852 5853 5855 5856 5856 5857 5858 5859 5860 5861 5861 5862 5862 5862 5863 5864 5865 5865 5865 5866 5866 5867 5867 5867 5868 5868 5868 5869 5869 5869 5870 5870 5871 5871 5872 5872 5873 5873 5873 5873 5874 5873 5873 5873 5872 5872 5872